2020-053B

Last updated on Jan. 21, 2021, 6:16 a.m. UTC

1 45986U 20053B   21020.82688340 -.00000127  00000-0  00000-0 0  9997
2 45986   0.0602 252.3248 0002213 355.2377 250.4804  1.00270621  1854
UTC
Height (km)
Latitude
Longitude
Inclination
Orbital Period
UTC large
Height (km)
Speed (km/s)
/
Latitude / Longitude
Inclination (degrees)
Orbital Period (minutes)
Azimuth
Elevation
Range (km)
Doppler Factor
iOS Compass Heading
iOS Angle

Next 30 passes for location: Hong Kong

Rise time Rise Azimuth (degrees) Set time Set Azimuth (degrees) Duration Max altitude (degrees)

No matching passes for this satellites